sat.trackr.live / text

‹ back to catalog

STARLINK-3078

NORAD 49134 · 2021-082E

PAYLOAD ACTIVE UNKNOWN

§ Identity

Operator
Country
US
Launch date
2021-09-14
Launch site
AFWTR
Launch vehicle
Mass (kg)
RCS (m²)

Purposes: comms

External: N2YO · Heavens-Above · Gunter

§ Orbital elements

Epoch: 2026-05-25T03:47:56.887584Z

Period
96.11 min
Inclination
69.9992°
Eccentricity
0.0003700
Mean motion
14.98330031 rev/d
Perigee alt
569.5 km
Apogee alt
574.6 km
Semi-major
6,950.2 km
B*
5.0987e-6
RAAN
101.6549°
Arg perigee
258.8698°
Mean anomaly
101.2045°
Rev number
25,863

§ Raw data

STARLINK-30781 49134U 21082E   26145.15829731 -.00000032  00000+0  50987-5 0  99972 49134  69.9992 101.6549 0003700 258.8698 101.2045 14.98330031258638

JSON: /api/v1/satellites/49134 · /tle

For live sub-satellite position, see the globe view (requires WebGL).

§ Visibility from observer

Set your observer location to see the next 7 days of passes ≥ 10°. The values pass through the URL so the page stays shareable.

No JS? Fill the form by hand. The geolocation button needs JavaScript.